Stations météo

Publicité
Amberieu, France (7482): Température de l'air & dewpoint: 20.05.2019 21:00:00 - 26.05.2019 21:00:00 (CEST)Amberieu, France (7482): Température de l'air 5cm: 20.05.2019 21:00:00 - 26.05.2019 21:00:00 (CEST)Amberieu, France (7482): Température de l'air -20cm & Température de l'air -100cm: 20.05.2019 21:00:00 - 26.05.2019 21:00:00 (CEST)Amberieu, France (7482): Vitesse du vent & gusts: 20.05.2019 21:00:00 - 26.05.2019 21:00:00 (CEST)Amberieu, France (7482): Direction du vent: 20.05.2019 21:00:00 - 26.05.2019 21:00:00 (CEST)Amberieu, France (7482): reduced air pressure: 20.05.2019 21:00:00 - 26.05.2019 21:00:00 (CEST)Amberieu, France (7482): visibility: 20.05.2019 21:00:00 - 26.05.2019 21:00:00 (CEST)Amberieu, France (7482): Ensoleillement: 20.05.2019 21:00:00 - 26.05.2019 21:00:00 (CEST)Amberieu, France (7482): Quantités de précipitations: 20.05.2019 21:00:00 - 26.05.2019 21:00:00 (CEST)
Date & Time tt [°C] td [°C] tt 5cm [°C] tt -20cm [°C] tt -100cm [°C] ff [km/h] ff [knt] fx [km/h] fx [knt] dd ppp [hPa] vv [km] sd [min] rr [mm]
26.05.2019 21:00:00 - - - - - - - - - - - - - -
26.05.2019 20:00:00 20,5 7,1 22,9 16,3 14,2 18 10 32 17 N 1014,2 20 60 0,0
26.05.2019 19:00:00 21,2 6,3 26,5 16,3 14,2 21 11 31 17 N 1014,3 20 60 0,0
26.05.2019 18:00:00 21,8 7,6 28,4 16,2 14,2 22 12 35 19 NNW 1014,6 20 60 0,0
26.05.2019 17:00:00 21,9 8,0 25,5 16,2 14,2 23 13 36 19 N 1015,1 20 54 0,0
26.05.2019 16:00:00 22,4 8,5 27,4 16,1 14,2 21 12 39 21 NNW 1015,3 20 49 0,0
26.05.2019 15:00:00 22,0 8,8 24,9 16,2 14,2 22 12 41 22 NNW 1015,6 20 46 0,0
26.05.2019 14:00:00 21,0 8,6 28,7 16,1 14,2 24 13 41 22 NNW 1016,1 19 60 0,0
26.05.2019 13:00:00 20,1 9,6 27,4 16,1 14,1 27 15 41 22 NNW 1016,6 20 60 0,0
26.05.2019 12:00:00 19,2 9,7 25,6 16,2 14,1 22 12 37 20 NNW 1016,9 20 60 0,0
26.05.2019 11:00:00 18,0 10,6 24,5 16,2 14,1 23 13 37 20 NNW 1017,3 20 60 0,0
26.05.2019 10:00:00 16,6 10,9 22,5 16,3 14,1 20 11 27 14 NNW 1017,5 20 60 0,0
26.05.2019 09:00:00 14,9 10,5 19,3 16,2 14,1 13 7 20 11 N 1017,8 20 60 0,0
26.05.2019 08:00:00 13,6 10,0 15,6 16,2 14,1 14 7 19 10 NNW 1018,0 20 60 0,0
26.05.2019 07:00:00 12,1 9,5 11,1 16,4 14,1 9 5 21 12 N 1017,9 20 19 0,0
26.05.2019 06:00:00 11,9 9,1 11,5 16,2 14,1 13 7 25 14 N 1017,5 20 0 0,0
26.05.2019 05:00:00 11,6 9,3 11,1 16,4 14,1 9 5 14 8 N 1017,7 20 0 0,0
26.05.2019 04:00:00 11,8 9,2 11,2 16,3 14,1 9 5 16 9 NNE 1017,8 20 0 0,0
26.05.2019 03:00:00 12,8 10,2 12,2 16,4 14,0 10 5 16 8 N 1017,6 20 0 0,0
26.05.2019 02:00:00 13,6 9,8 13,0 16,2 14,0 14 7 19 10 N 1017,8 20 0 0,0
26.05.2019 01:00:00 14,1 9,7 13,2 16,3 14,0 8 4 16 8 N 1018,1 20 0 0,0
26.05.2019 00:00:00 14,7 10,1 14,0 16,3 14,0 6 3 13 7 N 1018,0 20 0 0,0
25.05.2019 23:00:00 14,6 10,0 13,9 16,2 14,0 7 4 14 8 NNW 1017,8 20 0 0,0
25.05.2019 22:00:00 16,1 9,7 15,7 16,2 14,0 10 5 31 17 N 1017,1 20 0 0,0
25.05.2019 21:00:00 17,6 10,0 17,4 16,1 14,0 19 10 40 22 N 1016,2 20 1 0,0
25.05.2019 20:00:00 19,8 9,9 20,6 16,0 14,0 16 9 37 20 NNW 1015,5 20 51 0,0
25.05.2019 19:00:00 21,7 9,2 21,9 15,9 14,0 23 12 37 20 N 1014,9 20 27 0,0
25.05.2019 18:00:00 22,1 10,6 25,0 15,9 14,0 24 13 45 24 N 1014,5 20 41 0,0
25.05.2019 17:00:00 21,9 9,4 26,5 15,9 14,0 24 13 39 21 NNW 1014,5 20 48 0,0
25.05.2019 16:00:00 22,5 9,6 25,6 15,7 13,9 22 12 37 20 NNW 1014,6 20 56 0,0
25.05.2019 15:00:00 23,4 10,1 31,4 15,8 13,9 21 12 40 22 NNW 1014,7 20 60 0,0
25.05.2019 14:00:00 23,0 11,7 30,4 15,8 13,9 24 13 40 22 NNW 1014,9 20 60 0,0
25.05.2019 13:00:00 21,7 11,4 29,1 15,8 13,9 22 12 36 20 NNW 1015,7 20 60 0,0
25.05.2019 12:00:00 20,6 11,5 - - - 16 9 26 14 NNW 1016,0 20 - 0,0
25.05.2019 11:00:00 19,1 11,1 27,2 15,9 13,8 15 8 22 12 NNW 1016,1 20 60 0,0
25.05.2019 10:00:00 17,3 11,1 21,8 15,9 13,8 12 6 21 11 NNE 1016,2 20 60 0,0
25.05.2019 09:00:00 14,9 10,7 17,0 15,8 13,8 11 6 18 10 N 1016,4 20 50 0,0
25.05.2019 08:00:00 12,9 9,9 12,5 15,9 13,8 7 4 13 7 N 1016,2 20 13 0,0
25.05.2019 07:00:00 11,5 9,1 10,6 16,0 13,8 8 5 14 8 NNE 1016,1 20 0 0,0
25.05.2019 06:00:00 11,5 8,9 10,7 15,9 13,8 8 4 13 7 N 1015,7 20 0 0,0
25.05.2019 05:00:00 11,5 9,1 10,3 16,0 13,8 9 5 17 9 NNE 1015,2 20 0 0,0
25.05.2019 04:00:00 12,7 9,1 11,8 15,9 13,8 11 6 16 9 NNE 1014,9 20 0 0,0
25.05.2019 03:00:00 12,7 9,5 11,7 15,9 13,8 10 5 13 7 NNE 1014,8 20 0 0,0
25.05.2019 02:00:00 12,6 9,1 12,2 16,0 13,8 8 5 16 8 N 1014,9 20 0 0,0
25.05.2019 01:00:00 14,2 9,0 12,8 15,9 13,8 7 4 18 10 N 1015,0 20 0 0,0
25.05.2019 00:00:00 14,5 9,5 12,7 15,8 13,8 9 5 15 8 NE 1014,7 20 0 0,0
24.05.2019 23:00:00 15,6 9,5 13,6 15,7 13,8 6 3 15 8 N 1014,4 20 0 0,0
24.05.2019 22:00:00 17,5 9,4 16,2 15,6 13,8 11 6 23 12 N 1013,5 20 0 0,0
24.05.2019 21:00:00 19,4 8,4 19,0 15,7 13,8 14 8 31 17 N 1012,8 20 36 0,0
24.05.2019 20:00:00 21,3 8,2 22,2 15,5 13,8 22 12 36 19 N 1012,2 20 60 0,0
24.05.2019 19:00:00 22,6 7,6 26,8 15,4 13,8 19 11 29 16 N 1012,0 20 60 0,0
24.05.2019 18:00:00 23,3 8,9 30,5 15,4 13,7 16 9 34 18 NNW 1012,1 20 60 0,0
24.05.2019 17:00:00 23,4 8,3 28,1 15,4 13,8 18 10 34 19 N 1012,4 20 60 0,0
24.05.2019 16:00:00 23,0 7,5 31,2 15,3 13,7 16 8 32 17 N 1013,0 20 60 0,0
24.05.2019 15:00:00 23,4 7,9 33,1 15,3 13,8 13 7 24 13 NNW 1013,4 20 60 0,0
24.05.2019 14:00:00 23,3 9,7 32,2 15,2 13,7 14 8 27 15 NNW 1013,8 20 60 0,0
24.05.2019 13:00:00 22,6 9,7 31,4 15,3 13,7 13 7 24 13 NNW 1014,3 20 60 0,0
24.05.2019 12:00:00 21,4 9,9 30,5 15,2 13,7 7 4 18 10 N 1014,7 20 60 0,0
24.05.2019 11:00:00 19,3 10,3 27,9 15,3 13,7 5 3 13 7 N 1015,2 20 60 0,0
24.05.2019 10:00:00 18,3 10,4 24,2 15,3 13,7 3 1 9 5 W 1015,5 20 60 0,0
24.05.2019 09:00:00 15,4 9,7 19,3 15,4 13,6 3 1 8 4 NW 1015,8 20 60 0,0
24.05.2019 08:00:00 11,9 9,5 11,4 15,4 13,6 4 2 8 4 N 1016,0 20 44 0,0
24.05.2019 07:00:00 9,6 8,4 8,7 15,4 13,6 5 3 8 4 NNE 1016,1 20 17 0,0
24.05.2019 06:00:00 9,4 7,5 7,7 15,4 13,6 5 3 9 5 NE 1016,1 20 0 0,0
24.05.2019 05:00:00 9,9 8,2 7,5 15,4 13,6 7 4 10 6 ENE 1015,6 20 0 0,0
24.05.2019 04:00:00 10,0 7,8 8,4 15,4 13,6 4 2 8 4 NNW 1015,7 20 0 0,0
24.05.2019 03:00:00 10,4 8,3 9,0 15,4 13,6 5 3 8 5 N 1015,8 20 0 0,0
24.05.2019 02:00:00 11,2 8,2 8,6 15,3 13,6 5 3 9 5 ENE 1016,0 20 0 0,0
24.05.2019 01:00:00 12,3 8,8 8,6 15,3 13,6 4 2 6 3 E 1015,8 20 0 0,0
24.05.2019 00:00:00 12,5 8,4 9,0 15,2 13,6 5 3 8 4 ENE 1015,8 20 0 0,0
23.05.2019 23:00:00 13,6 8,2 9,6 15,1 13,6 4 2 10 5 NNE 1016,0 20 0 0,0
23.05.2019 22:00:00 14,8 8,1 11,5 15,1 13,6 7 4 10 6 ENE 1015,7 20 0 0,0
23.05.2019 21:00:00 17,8 6,9 14,4 15,0 13,6 7 4 13 7 N 1015,3 20 26 0,0
23.05.2019 20:00:00 21,1 7,7 23,7 14,8 13,6 11 6 18 10 NW 1014,6 20 60 0,0
23.05.2019 19:00:00 22,4 8,1 28,7 14,7 13,6 10 5 19 10 NNW 1014,3 20 60 0,0
23.05.2019 18:00:00 23,1 8,8 30,8 14,7 13,6 6 4 25 14 NNW 1014,5 20 60 0,0
23.05.2019 17:00:00 22,5 9,6 27,8 14,7 13,6 9 5 23 12 NNW 1015,0 20 60 0,0
23.05.2019 16:00:00 23,0 9,4 31,7 14,6 13,6 9 5 20 11 WNW 1015,5 20 60 0,0
23.05.2019 15:00:00 21,4 9,0 32,5 14,6 13,6 9 5 19 10 N 1016,1 20 60 0,0
23.05.2019 14:00:00 21,2 9,1 30,9 14,5 13,6 5 3 13 7 NW 1016,5 20 60 0,0
23.05.2019 13:00:00 19,4 7,5 28,3 14,6 13,6 4 2 14 8 SW 1017,5 20 60 0,0
23.05.2019 12:00:00 17,9 7,9 26,8 14,6 13,5 8 4 20 11 SW 1018,3 20 60 0,0
23.05.2019 11:00:00 16,6 8,3 24,3 14,7 13,5 7 4 15 8 SW 1018,5 20 60 0,0
23.05.2019 10:00:00 14,4 7,0 21,2 14,6 13,5 6 4 11 6 SW 1018,8 20 60 0,0
23.05.2019 09:00:00 12,3 6,8 18,5 14,6 13,5 3 2 7 4 S 1019,0 17 60 0,0
23.05.2019 08:00:00 10,1 6,4 11,9 14,8 13,5 4 2 6 3 N 1019,1 20 60 0,0
23.05.2019 07:00:00 7,5 5,0 0,8 14,7 13,5 3 2 5 3 NNW 1019,2 20 36 0,0
23.05.2019 06:00:00 6,9 4,6 1,3 14,8 13,5 0 0 8 4 N 1019,1 20 0 0,0
23.05.2019 05:00:00 6,4 4,6 1,5 14,8 13,5 4 2 9 5 NNE 1019,1 20 0 0,0
23.05.2019 04:00:00 6,9 4,6 2,5 14,8 13,5 9 5 15 8 ENE 1019,1 20 0 0,0
23.05.2019 03:00:00 7,4 4,5 2,8 14,8 13,5 5 3 7 4 NE 1019,4 20 0 0,0
23.05.2019 02:00:00 8,2 5,3 5,6 14,8 13,5 6 3 11 6 NE 1019,4 20 0 0,0
23.05.2019 01:00:00 9,5 5,3 5,6 14,8 13,5 7 4 12 7 NE 1019,3 20 0 0,0
23.05.2019 00:00:00 10,6 5,4 7,8 14,7 13,5 13 7 16 9 NNE 1019,3 20 0 0,0
22.05.2019 23:00:00 11,1 5,2 8,0 14,6 13,5 8 4 15 8 N 1019,5 20 0 0,0
22.05.2019 22:00:00 13,6 5,5 11,2 14,6 13,5 11 6 14 8 NNE 1019,1 20 0 0,0
22.05.2019 21:00:00 16,2 5,8 14,1 14,6 13,5 16 8 36 19 N 1018,3 20 46 0,0
22.05.2019 20:00:00 18,7 5,5 20,6 14,5 13,5 21 11 33 18 N 1017,8 20 60 0,0
22.05.2019 19:00:00 19,9 5,5 24,9 14,3 13,5 23 12 36 19 N 1017,6 20 60 0,0
22.05.2019 18:00:00 20,7 5,5 27,2 14,4 13,5 24 13 41 22 N 1017,7 20 60 0,0
22.05.2019 17:00:00 20,8 7,1 24,3 14,3 13,5 23 13 41 22 N 1017,8 20 60 0,0
22.05.2019 16:00:00 20,9 7,8 29,0 14,3 13,4 23 13 43 23 NNW 1017,7 20 60 0,0
22.05.2019 15:00:00 21,0 9,3 28,3 14,3 13,5 26 14 44 24 NNW 1017,6 20 60 0,0
22.05.2019 14:00:00 20,7 9,0 28,7 14,2 13,4 27 15 43 23 NNW 1017,9 20 60 0,0
22.05.2019 13:00:00 20,0 9,0 27,9 14,3 13,4 26 14 41 22 N 1018,0 19 60 0,0
22.05.2019 12:00:00 19,5 9,4 28,3 14,3 13,4 24 13 36 20 NNW 1018,2 20 60 0,0
22.05.2019 11:00:00 17,7 10,6 25,9 14,4 13,4 16 8 25 14 N 1018,4 20 60 0,0
22.05.2019 10:00:00 15,1 10,3 22,3 14,4 13,4 14 7 24 13 N 1018,8 19 60 0,0
22.05.2019 09:00:00 12,7 9,1 17,7 14,4 13,4 14 8 19 10 N 1019,1 20 60 0,0
22.05.2019 08:00:00 10,1 8,2 9,8 14,4 13,4 9 5 15 8 N 1019,3 19 60 0,0
22.05.2019 07:00:00 8,3 7,7 4,4 14,4 13,4 8 5 12 7 NNE 1019,3 19 25 0,0
22.05.2019 06:00:00 6,7 6,3 2,2 14,4 13,4 3 2 11 6 ENE 1018,9 10 0 0,0
22.05.2019 05:00:00 7,6 7,0 2,1 14,5 13,4 5 3 9 5 NNE 1018,6 20 0 0,0
22.05.2019 04:00:00 7,7 6,8 5,0 14,5 13,4 8 4 13 7 NNE 1018,3 18 0 0,0
22.05.2019 03:00:00 8,2 7,0 4,4 14,4 13,4 7 4 16 9 NNE 1018,4 17 0 0,0
22.05.2019 02:00:00 9,5 7,9 5,0 14,4 13,4 5 3 11 6 NNE 1018,1 20 0 0,0
22.05.2019 01:00:00 9,7 8,0 7,0 14,4 13,4 4 2 13 7 NE 1018,3 20 0 0,0
22.05.2019 00:00:00 10,5 8,1 8,1 14,3 13,4 7 4 18 10 NNE 1018,1 20 0 0,0
21.05.2019 23:00:00 12,4 9,2 9,9 14,3 13,4 16 8 20 11 N 1017,7 20 0 0,0
21.05.2019 22:00:00 13,2 8,9 11,4 14,2 13,4 11 6 27 14 N 1017,2 20 0 0,0
21.05.2019 21:00:00 15,5 8,7 14,6 14,2 13,4 20 11 32 17 N 1016,4 20 35 0,0
21.05.2019 20:00:00 17,3 9,0 19,3 14,2 13,4 21 11 39 21 NNW 1015,6 20 60 0,0
21.05.2019 19:00:00 18,6 9,4 23,4 14,1 13,4 27 14 38 20 N 1015,3 20 60 0,0
21.05.2019 18:00:00 18,6 8,8 21,8 14,1 13,4 21 11 40 21 N 1015,2 20 54 0,0
21.05.2019 17:00:00 19,1 9,3 22,9 14,0 13,4 22 12 42 23 N 1015,2 20 60 0,0
21.05.2019 16:00:00 18,1 10,9 21,0 14,0 13,4 24 13 38 21 N 1015,7 20 32 0,0
21.05.2019 15:00:00 18,1 10,5 23,4 14,1 13,4 21 12 32 17 NNW 1015,8 19 47 0,0
21.05.2019 14:00:00 17,1 11,4 19,9 14,1 13,4 16 9 30 16 N 1015,9 19 12 0,0
21.05.2019 13:00:00 16,7 11,4 22,9 14,1 13,4 19 10 30 16 N 1016,0 16 43 0,0
21.05.2019 12:00:00 15,0 11,0 19,0 14,0 13,4 17 9 25 14 N 1016,2 14 3 0,0
21.05.2019 11:00:00 14,5 10,9 15,5 14,1 13,3 13 7 22 12 N 1016,1 12 3 0,0
21.05.2019 10:00:00 13,2 11,1 15,0 14,1 13,3 13 7 19 11 N 1015,9 9 4 0,0
21.05.2019 09:00:00 12,1 10,8 13,5 14,2 13,3 8 4 11 6 N 1015,7 9 0 0,0
21.05.2019 08:00:00 11,7 11,1 11,7 14,2 13,3 4 2 9 5 NE 1015,3 6 17 0,0
21.05.2019 07:00:00 11,1 10,8 10,4 14,2 13,3 6 3 10 5 NNW 1015,0 3,5 0 0,0
21.05.2019 06:00:00 10,5 10,2 9,9 14,1 13,3 4 2 6 3 NNW 1014,7 2,7 0 0,0
21.05.2019 05:00:00 10,9 10,4 10,8 14,2 13,3 3 2 8 4 NE 1014,5 3,6 0 0,0
21.05.2019 04:00:00 11,0 10,4 11,0 14,2 13,3 4 2 6 4 NE 1014,6 4,7 0 0,0
21.05.2019 03:00:00 11,1 10,6 11,4 14,1 13,3 6 3 10 6 N 1014,6 4,0 0 0,0
21.05.2019 02:00:00 11,4 10,8 11,6 14,2 13,4 9 5 14 8 N 1014,5 4,9 0 0,0
21.05.2019 01:00:00 11,4 10,8 11,7 14,1 13,4 6 3 14 8 N 1014,4 4,5 0 0,0
21.05.2019 00:00:00 11,6 10,8 11,9 14,2 13,3 9 5 14 8 N 1014,3 6 0 0,0
20.05.2019 23:00:00 12,3 11,7 12,4 14,2 13,3 7 4 13 7 N 1014,0 4,4 0 0,4
20.05.2019 22:00:00 12,3 11,5 12,5 14,2 13,3 8 4 13 7 N 1013,5 2,5 0 3,2
20.05.2019 21:00:00 12,8 11,5 12,6 14,2 13,3 3 2 9 5 ENE 1012,6 9 0 0,2

tt = Température de l'air
td = dewpoint
tt 5cm = Température de l'air 5cm
tt -20cm = Température de l'air -20cm
tt -100cm = Température de l'air -100cm
ff = Vitesse du vent
fx = gusts
dd = Direction du vent
ppp = reduced air pressure
vv = visibility
sd = Ensoleillement
rr = Quantités de précipitations

stations d'obs. à proximité